Flag for Trinidad and Tobago Weather past 2 weeks in Port of Spain, Trinidad and Tobago

Now
77 °F

Passing clouds.


Feels Like: 78 °F
Forecast: 78 / 85 °F
Wind: No wind

Location: Piarco International Airport - Trinidad

Current Time: Dec 21, 2014 at 3:09:59 AM

Latest Report: Dec 21, 2014 at 2:00 AM


Visibility: N/A

Pressure: 29.89 "Hg

Humidity: 83%

Dew point: 72 °F

Location of Port of SpainLocation

Historic Weather in Port of Spain — Graph

°F

Port of Spain temperature yesterday

Maximum temperature yesterday: 90 °F (at 12:00 PM)
Minimum temperature yesterday: 72 °F (at 5:00 AM)
Average temperature yesterday: 80 °F

Past Weeks' High & Low Weather Summary

 TemperatureHumidityPressure
High91 °F (Dec 6, 12:00 PM)100% (Dec 14, 4:00 AM)30.01 "Hg (Dec 14, 4:00 AM)
Low72 °F (Dec 13, 5:00 AM)49% (Dec 13, 2:00 PM)29.77 "Hg (Dec 6, 4:00 PM)
Average81 °F78%29.88 "Hg
* Reported Dec 6 2:00 AM — Dec 21 2:00 AM, Port of Spain, Weather by CustomWeather, © 2014

Note: Actual official high and low records may vary slightly from our data, if they occured in-between our weather recording intervals... More about our weather records

Advertising

Port of Spain weather history for previous 24 hours

 ConditionsComfort  
Time TempWeatherWind HumidityBarometerVisibility
2:00 AM
Dec 21
77 °FPassing clouds.No wind83%29.89 "HgN/A
1:00 AM75 °FPassing clouds.No wind89%29.92 "HgN/A
12:00 AM75 °FPassing clouds.No wind89%29.95 "HgN/A
11:00 PM
Dec 20
75 °FPassing clouds.No wind89%29.95 "HgN/A
10:00 PM77 °FPassing clouds.No wind83%29.95 "HgN/A
9:00 PM77 °FPassing clouds.No wind83%29.92 "HgN/A
8:00 PM79 °FPassing clouds.No wind79%29.92 "HgN/A
7:00 PM79 °FPassing clouds.No wind84%29.89 "HgN/A
6:00 PM81 °FPassing clouds.6 mph74%29.89 "HgN/A
5:00 PM86 °FPassing clouds.12 mph59%29.89 "HgN/A
4:00 PM88 °FPassing clouds.13 mph55%29.86 "HgN/A
3:00 PM88 °FPassing clouds.14 mph52%29.89 "HgN/A
2:00 PM88 °FScattered clouds.14 mph55%29.89 "HgN/A
1:00 PM88 °FScattered clouds.14 mph55%29.92 "HgN/A
12:00 PM90 °FScattered clouds.15 mph55%29.95 "HgN/A
11:00 AM86 °FScattered clouds.14 mph62%29.95 "HgN/A
10:00 AM86 °FScattered clouds.15 mph66%29.95 "HgN/A
8:00 AM77 °FScattered showers. Scattered clouds.No wind89%29.95 "HgN/A
7:00 AM73 °FScattered showers. Passing clouds.No wind89%29.92 "HgN/A
6:00 AM73 °FScattered showers. Passing clouds.No wind89%29.89 "HgN/A
5:00 AM72 °FScattered showers. Passing clouds.No wind94%29.86 "HgN/A
4:00 AM73 °FPassing clouds.No wind89%29.86 "HgN/A
3:00 AM73 °FPassing clouds.No wind89%29.86 "HgN/A
Weather by CustomWeather, © 2014

See weather overviewHow to use our weather pages